Time,TemperatureF,DewpointF,PressureIn,WindDirection,WindDirectionDegrees,WindSpeedMPH,WindSpeedGustMPH,Humidity,HourlyPrecipIn,Conditions,Clouds,dailyrainin,SoftwareType,DateUTC
2016-09-28 00:04:00,51.0,49.0,-100.00,NNW,332,1.0,2.0,94,-99.99,,,-99.99,,2016-09-28 07:04:00,
2016-09-28 00:36:00,52.0,50.0,-100.00,North,-9999,0.0,2.0,94,-99.99,,,-99.99,,2016-09-28 07:36:00,
2016-09-28 00:49:00,52.0,50.0,-100.00,North,-9999,0.0,2.0,94,-99.99,,,-99.99,,2016-09-28 07:49:00,
2016-09-28 00:57:00,52.0,50.0,-100.00,North,-9999,0.0,-999.0,94,-99.99,,,-99.99,,2016-09-28 07:57:00,
2016-09-28 01:03:00,52.0,50.0,-100.00,North,-9999,0.0,2.0,94,-99.99,,,-99.99,,2016-09-28 08:03:00,
2016-09-28 01:34:00,49.0,48.0,-100.00,SW,232,1.0,1.0,95,-99.99,,,-99.99,,2016-09-28 08:34:00,
2016-09-28 01:44:00,49.0,48.0,-100.00,SW,232,1.0,1.0,95,-99.99,,,-99.99,,2016-09-28 08:44:00,
2016-09-28 01:54:00,49.0,48.0,-100.00,SW,232,1.0,1.0,95,-99.99,,,-99.99,,2016-09-28 08:54:00,
2016-09-28 02:03:00,49.0,48.0,-100.00,SW,232,1.0,1.0,95,-99.99,,,-99.99,,2016-09-28 09:03:00,
2016-09-28 02:44:00,50.0,49.0,-100.00,NNE,24,1.0,2.0,97,-99.99,,,-99.99,,2016-09-28 09:44:00,
2016-09-28 03:04:00,50.0,49.0,-100.00,NNE,24,1.0,2.0,97,-99.99,,,-99.99,,2016-09-28 10:04:00,
2016-09-28 03:35:00,50.0,49.0,-100.00,North,-9999,0.0,1.0,97,-99.99,,,-99.99,,2016-09-28 10:35:00,
2016-09-28 03:45:00,50.0,49.0,-100.00,North,-9999,0.0,1.0,97,-99.99,,,-99.99,,2016-09-28 10:45:00,
2016-09-28 04:04:00,50.0,49.0,-100.00,North,-9999,0.0,1.0,97,-99.99,,,-99.99,,2016-09-28 11:04:00,
2016-09-28 04:29:00,51.0,50.0,-100.00,NNE,25,1.0,-999.0,96,-99.99,,,-99.99,,2016-09-28 11:29:00,
2016-09-28 04:46:00,51.0,50.0,-100.00,NNE,25,1.0,2.0,96,-99.99,,,-99.99,,2016-09-28 11:46:00,
2016-09-28 04:55:00,51.0,50.0,-100.00,NNE,25,1.0,2.0,96,-99.99,,,-99.99,,2016-09-28 11:55:00,
2016-09-28 05:04:00,51.0,50.0,-100.00,NNE,25,1.0,2.0,96,-99.99,,,-99.99,,2016-09-28 12:04:00,
2016-09-28 05:39:00,51.0,50.0,-100.00,North,-9999,0.0,1.0,96,-99.99,,,-99.99,,2016-09-28 12:39:00,
2016-09-28 05:49:00,51.0,50.0,-100.00,North,-9999,0.0,1.0,96,-99.99,,,-99.99,,2016-09-28 12:49:00,
2016-09-28 05:56:00,51.0,50.0,-100.00,North,-9999,0.0,1.0,96,-99.99,,,-99.99,,2016-09-28 12:56:00,
2016-09-28 06:04:00,51.0,50.0,-100.00,North,-9999,0.0,1.0,96,-99.99,,,-99.99,,2016-09-28 13:04:00,
2016-09-28 07:35:00,50.0,48.0,-100.00,North,-9999,0.0,1.0,94,-99.99,,,-99.99,,2016-09-28 14:35:00,
2016-09-28 07:46:00,50.0,48.0,-100.00,North,-9999,0.0,-999.0,94,-99.99,,,-99.99,,2016-09-28 14:46:00,
2016-09-28 08:03:00,50.0,48.0,-100.00,North,-9999,0.0,1.0,94,-99.99,,,-99.99,,2016-09-28 15:03:00,
2016-09-28 08:35:00,51.0,48.0,-100.00,North,7,1.0,3.0,91,-99.99,,,-99.99,,2016-09-28 15:35:00,
2016-09-28 09:04:00,51.0,48.0,-100.00,North,7,1.0,3.0,91,-99.99,,,-99.99,,2016-09-28 16:04:00,
2016-09-28 09:26:00,51.0,48.0,-100.00,East,89,1.0,-999.0,88,-99.99,,,-99.99,,2016-09-28 16:26:00,
2016-09-28 10:06:00,51.0,48.0,-100.00,East,89,1.0,5.0,88,-99.99,,,-99.99,,2016-09-28 17:06:00,
2016-09-28 10:49:00,61.0,51.0,-100.00,ESE,117,1.0,-999.0,69,-99.99,,,-99.99,,2016-09-28 17:49:00,
2016-09-28 11:04:00,61.0,51.0,-100.00,ESE,117,1.0,5.0,69,-99.99,,,-99.99,,2016-09-28 18:04:00,
2016-09-28 11:46:00,67.0,52.0,-100.00,ESE,112,2.0,7.0,58,-99.99,,,-99.99,,2016-09-28 18:46:00,
2016-09-28 12:04:00,67.0,52.0,-100.00,ESE,112,2.0,7.0,58,-99.99,,,-99.99,,2016-09-28 19:04:00,
2016-09-28 12:37:00,68.0,52.0,-100.00,East,82,2.0,9.0,56,-99.99,,,-99.99,,2016-09-28 19:37:00,
2016-09-28 12:46:00,68.0,52.0,-100.00,East,82,2.0,9.0,56,-99.99,,,-99.99,,2016-09-28 19:46:00,
2016-09-28 13:04:00,68.0,52.0,-100.00,East,82,2.0,9.0,56,-99.99,,,-99.99,,2016-09-28 20:04:00,
2016-09-28 13:35:00,71.0,54.0,-100.00,WSW,247,2.0,11.0,55,-99.99,,,-99.99,,2016-09-28 20:35:00,
2016-09-28 13:44:00,71.0,54.0,-100.00,WSW,247,2.0,11.0,55,-99.99,,,-99.99,,2016-09-28 20:44:00,
2016-09-28 13:54:00,71.0,54.0,-100.00,WSW,247,2.0,11.0,55,-99.99,,,-99.99,,2016-09-28 20:54:00,
2016-09-28 14:03:00,71.0,54.0,-100.00,WSW,247,2.0,11.0,55,-99.99,,,-99.99,,2016-09-28 21:03:00,
2016-09-28 14:35:00,71.0,51.0,-100.00,NE,37,3.0,10.0,49,-99.99,,,-99.99,,2016-09-28 21:35:00,
2016-09-28 15:04:00,71.0,51.0,-100.00,NE,37,3.0,-999.0,49,-99.99,,,-99.99,,2016-09-28 22:04:00,
2016-09-28 15:37:00,68.0,50.0,-100.00,NW,325,3.0,13.0,52,-99.99,,,-99.99,,2016-09-28 22:37:00,
2016-09-28 16:01:00,68.0,50.0,-100.00,NW,325,3.0,13.0,52,-99.99,,,-99.99,,2016-09-28 23:01:00,
2016-09-28 16:30:00,69.0,49.0,-100.00,SE,132,3.0,16.0,49,-99.99,,,-99.99,,2016-09-28 23:30:00,
2016-09-28 16:36:00,69.0,49.0,-100.00,SE,132,3.0,16.0,49,-99.99,,,-99.99,,2016-09-28 23:36:00,
2016-09-28 16:48:00,69.0,49.0,-100.00,SE,132,3.0,16.0,49,-99.99,,,-99.99,,2016-09-28 23:48:00,
2016-09-28 16:57:00,69.0,49.0,-100.00,SE,132,3.0,16.0,49,-99.99,,,-99.99,,2016-09-28 23:57:00,
2016-09-28 17:04:00,69.0,49.0,-100.00,SE,132,3.0,16.0,49,-99.99,,,-99.99,,2016-09-29 00:04:00,
2016-09-28 17:48:00,65.0,51.0,-100.00,West,270,2.0,11.0,61,-99.99,,,-99.99,,2016-09-29 00:48:00,
2016-09-28 17:55:00,65.0,51.0,-100.00,West,270,2.0,11.0,61,-99.99,,,-99.99,,2016-09-29 00:55:00,
2016-09-28 18:04:00,65.0,51.0,-100.00,West,270,2.0,11.0,61,-99.99,,,-99.99,,2016-09-29 01:04:00,
2016-09-28 18:45:00,61.0,51.0,-100.00,SSW,200,2.0,8.0,69,-99.99,,,-99.99,,2016-09-29 01:45:00,
2016-09-28 18:56:00,61.0,51.0,-100.00,SSW,200,2.0,8.0,69,-99.99,,,-99.99,,2016-09-29 01:56:00,
2016-09-28 19:03:00,61.0,51.0,-100.00,SSW,200,2.0,8.0,69,-99.99,,,-99.99,,2016-09-29 02:03:00,